sat.trackr.live / text

‹ back to catalog

MIMIR 1

NORAD 68490 · 2026-067CC

PAYLOAD ACTIVE UNKNOWN

§ Identity

Operator
Country
NOR
Launch date
2026-03-30
Launch site
AFWTR
Launch vehicle
Mass (kg)
RCS (m²)

External: N2YO · Heavens-Above · Gunter

§ Orbital elements

Epoch: 2026-09-20T02:32:42.287136Z

Period
96.57 min
Inclination
97.7718°
Eccentricity
0.0003648
Mean motion
14.91078596 rev/d
Perigee alt
592.0 km
Apogee alt
597.1 km
Semi-major
6,972.7 km
B*
1.4679e-4
RAAN
219.7884°
Arg perigee
79.7075°
Mean anomaly
280.4554°
Rev number
2,586

§ Raw data

MIMIR 11 68490U 26067CC  26263.10604499  .00001399  00000+0  14679-3 0  99912 68490  97.7718 219.7884 0003648  79.7075 280.4554 14.91078596 25862

JSON: /api/v1/satellites/68490 · /tle

For live sub-satellite position, see the globe view (requires WebGL).

§ Visibility from observer

Set your observer location to see the next 7 days of passes ≥ 10°. The values pass through the URL so the page stays shareable.

No JS? Fill the form by hand. The geolocation button needs JavaScript.